GFSNIL_sfc_thetae_174.txt.gz
Theta_e
303 303 302 300 299 298 297 298 299 299 300 301 300 299 298 296 295 293 292 291 291 292
301 298 298 297 296 295 296 298 298 297 298 300 300 299 297 295 294 293 292 291 291 291
297 296 296 295 294 295 295 296 297 297 298 299 300 299 297 295 294 293 292 292 291 290
295 295 295 294 294 294 295 295 296 297 298 298 298 298 297 296 295 294 293 292 291 290
294 294 293 292 293 293 293 293 294 294 295 296 296 296 296 295 295 294 293 292 291 290
292 292 291 292 292 293 292 292 292 292 292 293 293 293 294 294 294 294 293 293 292 291
291 291 291 292 292 292 292 291 291 292 292 292 292 292 292 292 292 291 292 292 291 291
292 292 291 291 291 291 291 291 291 291 291 291 291 293 292 293 291 290 290 290 291 291
291 291 291 290 290 290 290 290 290 290 290 289 291 295 297 297 291 291 290 288 289 290
291 290 290 290 290 289 288 288 288 288 289 288 289 295 296 298 293 290 289 288 288 289
290 290 290 289 289 288 288 288 288 288 288 288 289 294 295 296 292 289 288 287 287 287
290 290 289 288 288 288 288 287 287 288 287 287 288 293 294 295 290 288 287 287 287 286
290 289 288 288 287 287 287 287 286 286 286 288 287 291 293 294 289 286 286 286 286 290
288 287 286 286 285 285 284 284 284 284 285 284 286 286 292 294 289 286 285 285 285 286

GFSNIL_sfc_thetae_177.txt.gz
Theta_e
302 302 302 301 298 297 296 295 297 297 297 298 299 299 297 296 295 293 292 291 291 291
301 300 298 297 295 294 294 297 296 296 296 297 298 299 297 295 295 293 292 292 291 290
298 296 295 294 294 294 294 295 295 296 297 297 298 298 297 295 295 293 292 292 290 290
295 295 294 294 293 293 293 293 294 294 295 296 296 296 295 295 295 294 293 292 291 291
294 293 293 292 292 292 292 292 292 292 293 293 293 293 293 293 294 293 293 292 291 291
292 291 291 291 291 292 291 291 291 291 291 291 292 291 291 292 292 291 291 291 291 290
290 290 290 291 291 291 291 290 290 290 291 291 291 291 291 291 291 290 290 290 290 289
290 291 290 290 290 290 290 290 290 290 290 290 290 291 290 291 290 289 289 289 289 289
290 290 290 290 289 289 289 289 288 288 288 288 290 294 296 296 290 290 289 288 288 288
290 290 289 289 289 288 288 287 287 287 287 287 287 294 296 297 291 289 288 287 287 288
290 289 289 289 288 287 287 287 286 286 286 286 287 293 294 295 290 289 288 287 286 286
290 289 288 287 287 286 286 285 285 286 285 284 285 291 293 293 288 287 287 287 286 285
289 288 287 286 285 285 285 285 284 284 284 287 285 290 292 292 287 285 286 285 285 290
287 286 285 284 283 283 282 282 282 282 282 282 284 284 291 292 288 286 286 285 285 285

GFSNIL_sfc_thetae_180.txt.gz
Theta_e
301 300 300 300 298 296 295 294 295 295 295 296 297 298 297 295 295 293 292 291 290 291
300 300 299 297 295 294 294 296 295 295 295 296 297 297 296 295 294 293 293 292 291 290
299 297 295 294 293 293 293 294 294 294 294 295 296 296 295 294 294 293 292 292 290 290
295 294 293 293 293 293 292 292 292 292 293 293 293 294 293 293 294 293 292 292 291 290
293 293 292 292 291 291 291 291 291 291 291 291 292 291 291 291 291 291 291 291 291 290
291 291 290 290 291 291 291 290 290 290 290 290 291 290 290 290 290 290 290 290 289 289
290 290 290 290 290 290 290 289 289 289 290 290 290 290 289 290 289 289 289 289 289 288
290 290 290 290 289 289 289 289 289 289 289 288 289 290 289 290 289 288 288 288 288 288
289 290 289 289 289 289 288 288 288 287 287 287 289 293 295 294 289 289 288 287 287 287
289 289 289 289 288 288 287 286 286 286 286 286 286 292 295 295 290 288 287 286 286 287
289 289 288 288 287 287 286 286 285 285 285 284 286 292 293 294 289 287 286 286 286 285
289 288 288 287 286 285 285 284 284 285 284 283 284 290 293 292 286 285 285 286 286 285
289 288 287 286 285 284 284 284 283 283 282 285 284 288 291 291 286 284 285 285 285 290
287 286 285 283 282 282 281 281 280 281 281 281 282 283 290 292 286 284 285 284 285 285

GFSNIL_sfc_thetae_186.txt.gz
Theta_e
312 311 310 309 310 310 310 308 306 305 306 306 306 307 307 308 308 308 307 306 306 305
311 311 310 310 311 310 308 305 305 305 305 305 306 306 307 307 307 307 307 307 306 305
310 311 310 310 308 306 305 304 304 303 303 303 304 304 305 305 305 304 305 305 304 304
310 310 309 307 306 304 304 303 302 301 301 300 300 301 301 300 300 300 301 302 302 301
310 307 306 305 304 303 302 301 301 300 299 299 299 299 299 298 298 298 298 299 299 298
306 305 304 303 301 301 300 300 299 299 298 298 298 298 298 297 297 297 297 297 297 297
304 304 303 301 300 300 300 299 299 298 298 297 297 297 296 296 296 296 296 296 296 296
302 301 300 299 299 299 299 298 298 298 297 297 296 295 295 295 295 295 295 295 295 296
298 298 299 299 298 298 298 298 297 297 296 296 295 294 294 295 295 295 294 294 294 295
297 297 298 298 297 297 297 297 296 296 295 294 294 292 293 295 295 295 294 294 293 293
297 297 297 297 297 297 297 296 296 294 294 293 293 291 293 294 295 294 294 293 293 292
297 297 296 296 296 297 296 295 293 293 292 292 292 291 292 293 293 292 292 292 292 291
297 297 296 297 296 295 293 292 291 291 291 291 291 292 291 291 291 290 290 291 291 291
296 296 296 295 293 291 290 290 289 289 290 290 291 291 290 291 291 289 288 288 289 290

GFSNIL_sfc_thetae_189.txt.gz
Theta_e
313 313 312 312 312 312 311 311 310 308 307 307 307 307 308 308 309 309 309 308 307 306
312 312 311 312 312 312 311 308 307 307 306 306 306 306 307 307 307 307 308 308 308 306
312 312 312 312 310 311 309 305 306 305 305 305 305 305 305 305 305 304 306 305 305 305
312 311 311 310 310 308 306 305 304 303 302 302 302 302 302 302 302 301 301 302 302 301
312 311 310 309 308 306 304 303 302 302 301 300 300 301 300 299 299 298 298 299 299 298
311 309 308 308 306 304 303 302 301 301 300 299 300 299 299 298 298 298 297 297 297 297
308 308 307 306 304 302 302 301 300 300 299 299 299 298 298 297 296 296 296 296 296 296
307 306 305 303 302 301 301 300 300 299 298 298 297 297 297 296 295 295 295 295 295 296
304 302 301 300 300 300 299 299 299 298 298 298 296 296 294 294 294 294 294 294 294 295
300 299 299 299 299 299 298 299 298 298 297 296 296 294 294 295 294 294 294 294 294 293
299 299 299 299 298 298 299 298 298 297 296 295 294 293 293 294 294 294 294 294 293 292
299 298 298 297 298 298 298 297 296 295 294 293 293 293 292 292 292 292 292 292 292 291
300 298 298 298 298 298 297 295 294 292 292 293 291 294 293 292 290 289 289 290 290 293
298 298 298 298 297 295 293 292 291 290 290 290 291 292 294 292 290 289 288 288 288 289

GFSNIL_sfc_thetae_192.txt.gz
Theta_e
311 311 309 309 310 308 308 307 307 305 303 302 303 302 303 303 303 302 302 301 301 301
311 310 309 309 309 308 308 306 304 304 302 302 303 303 303 301 302 302 301 301 301 301
309 310 310 309 307 308 306 304 303 302 302 302 302 301 301 300 301 300 299 300 299 299
309 309 309 308 308 306 303 301 301 301 300 299 299 299 298 297 297 297 296 296 297 297
308 308 306 305 304 302 300 300 300 299 298 297 297 296 296 295 295 294 294 294 294 294
305 305 304 303 302 300 299 298 297 297 296 296 296 295 295 295 294 294 293 293 293 293
304 304 303 302 300 299 297 296 295 295 295 295 295 295 294 294 292 291 292 292 292 292
303 302 301 299 297 297 296 295 295 295 294 294 294 294 293 293 291 290 290 291 292 292
300 299 297 296 295 295 294 294 294 294 294 293 294 297 296 294 290 290 290 289 290 291
298 296 295 295 294 294 293 293 293 292 293 292 292 297 296 295 291 290 289 289 290 290
295 294 294 294 293 293 293 293 292 292 292 291 291 297 295 295 290 289 289 290 289 288
295 294 294 293 293 292 292 292 292 292 291 289 289 296 295 293 289 288 288 288 288 288
295 294 293 293 293 293 292 292 292 290 288 291 288 294 295 293 288 285 285 285 286 292
295 294 294 293 293 292 290 289 287 286 286 287 287 287 295 295 288 286 285 285 284 285

GFSNIL_sfc_thetae_195.txt.gz
Theta_e
310 311 310 310 309 308 308 309 309 308 306 304 304 303 302 301 301 301 300 299 300 300
308 308 308 309 310 309 309 309 308 306 303 303 302 302 301 300 300 300 299 299 299 300
309 309 309 310 308 308 308 306 305 304 303 302 302 301 300 299 300 299 298 299 299 298
310 310 310 309 308 307 305 303 303 302 300 300 298 298 298 297 297 297 296 295 296 296
311 310 307 307 307 305 301 300 300 300 298 297 297 297 296 295 294 293 293 293 293 293
305 305 303 303 302 301 299 298 298 297 296 295 295 294 294 294 293 293 293 292 292 292
303 303 303 302 301 299 298 296 295 295 295 295 294 294 293 293 291 291 291 291 291 291
303 302 302 299 298 297 295 294 294 293 293 293 293 293 292 292 290 290 289 290 290 291
301 300 298 296 295 294 293 293 293 292 292 292 293 297 298 293 289 290 289 289 289 289
298 296 295 294 293 293 292 292 291 291 291 291 291 298 298 297 290 288 288 288 288 289
295 294 293 293 292 291 291 291 291 291 291 291 292 297 299 297 290 288 288 288 288 288
294 293 292 292 291 291 291 291 291 291 291 289 289 296 297 294 289 288 287 287 288 287
294 293 292 292 291 291 291 291 291 290 289 291 288 292 296 294 287 285 285 285 286 290
294 293 292 292 291 291 290 289 287 287 287 287 288 287 293 296 288 286 285 284 285 286